Flag for Germany Weather past 2 weeks in Freising, Bavaria, Germany

Now
47 °F

Overcast.


Feels Like: 46 °F
Forecast: 30 / 53 °F
Wind: 3 mph from Northeast

Location: Muenchen Flughafen


UV Index: 3 (Moderate)

Visibility: 31 mi


Pressure: 30.37 "Hg

Humidity: 60%

Dew point: 34 °F

Location of FreisingLocation

Historic Weather in Freising

°F

Freising temperature yesterday

Maximum temperature yesterday: 42 °F (at 5:00 PM)
Minimum temperature yesterday: 37 °F (at 8:00 AM)
Average temperature yesterday: 40 °F

Past Weeks' High & Low Weather Summary

 TemperatureHumidityPressure
High69 °F (Apr 3, 3:00 PM)100% (Apr 6, 11:00 PM)30.40 "Hg (Apr 6, 11:00 PM)
Low30 °F (Apr 16, 4:00 AM)33% (Apr 1, 4:00 PM)29.64 "Hg (Apr 3, 6:00 PM)
Average50 °F74%30.02 "Hg
* Reported Apr 1 3:00 PM — Apr 16 3:00 PM, Freising, Weather by CustomWeather, © 2014

Note: Actual official high and low records may vary slightly from our data, if they occured in-between our weather recording intervals... More about our weather records

Advertising

Historic Weather Conditions — Data for Previous 24 hours

 ConditionsComfort  
Time TempWeatherWind HumidityBarometerVisibility
3:00 PM
Apr 16
47 °FOvercast.3 mph60%30.37 "Hg31 mi
2:00 PM45 °FOvercast.1 mph62%30.37 "Hg28 mi
1:00 PM45 °FOvercast.2 mph67%30.38 "Hg28 mi
12:00 PM44 °FOvercast.1 mph68%30.39 "Hg22 mi
11:00 AM42 °FOvercast.2 mph73%30.40 "Hg19 mi
10:00 AM40 °FPartly sunny.2 mph78%30.40 "Hg16 mi
9:00 AM38 °FPartly sunny.1 mph82%30.40 "Hg12 mi
8:00 AM37 °FPartly sunny.1 mph84%30.39 "Hg12 mi
7:00 AM33 °FPartly sunny.2 mph91%30.40 "Hg10 mi
6:00 AM33 °FOvercast.2 mph92%30.38 "Hg12 mi
5:00 AM31 °FPassing clouds.1 mph96%30.38 "Hg19 mi
4:00 AM30 °FPassing clouds.2 mph92%30.37 "Hg19 mi
3:00 AM35 °FPassing clouds.2 mph83%30.34 "Hg22 mi
12:00 AM40 °FOvercast.2 mph69%30.31 "Hg31 mi
11:00 PM
Apr 15
40 °FOvercast.2 mph67%30.30 "Hg31 mi
10:00 PM41 °FOvercast.2 mph64%30.29 "Hg31 mi
9:00 PM41 °FOvercast.3 mph61%30.28 "Hg31 mi
8:00 PM41 °FLight rain. Overcast.5 mph66%30.27 "Hg19 mi
7:00 PM42 °FOvercast.5 mph63%30.26 "Hg25 mi
6:00 PM41 °FSprinkles. Overcast.6 mph66%30.26 "Hg25 mi
5:00 PM42 °FOvercast.6 mph63%30.25 "Hg31 mi
4:00 PM42 °FOvercast.6 mph61%30.26 "Hg31 mi
Weather by CustomWeather, © 2014

See weather overview